GW4392 Weather Reports


time (UTC)temp
F
wind
direction
speed
knots
gust
knots
rain 1hr
in
rain 24hr
in
rain mn
in
humidity
%
barometer
mb
20260505152858 55 194 0.0 0.9 0.00 0.00 0.00 85 1016.7
20260505152355 55 272 1.7 2.6 0.00 0.00 0.00 85 1016.5
20260505151855 54 132 1.7 2.6 0.00 0.00 0.00 86 1016.6
20260505151352 55 134 0.0 0.9 0.00 0.00 0.00 86 1016.7
20260505150849 54 168 0.0 0.9 0.00 0.00 0.00 86 1016.6
20260505150346 54 197 1.7 2.6 0.00 0.00 0.00 86 1016.6
20260505140310 54 121 0.0 1.7 0.00 0.00 0.00 87 1016.1
20260505130234 53 162 1.7 1.7 0.00 0.00 0.00 88 1015.9
20260505124724 53 166 0.0 1.7 0.00 0.00 0.00 88 1015.6
20260505124221 53 154 1.7 1.7 0.00 0.00 0.00 88 1015.6
20260505123716 53 187 0.9 2.6 0.00 0.00 0.00 88 1015.5
20260505123214 53 144 1.7 2.6 0.00 0.00 0.00 88 1015.5
20260505122710 53 164 0.0 1.7 0.00 0.00 0.00 88 1015.6
20260505122208 53 150 0.0 1.7 0.00 0.00 0.00 88 1015.4
20260505121704 53 152 2.6 2.6 0.00 0.00 0.00 88 1015.9
20260505121201 53 150 0.9 1.7 0.00 0.00 0.00 88 1015.5
20260505120657 53 157 0.9 2.6 0.00 0.00 0.00 89 1015.5
20260505120154 53 135 0.9 2.6 0.00 0.00 0.00 89 1015.5
20260505115652 53 149 1.7 3.5 0.00 0.00 0.00 88 1015.5
20260505115151 53 156 2.6 2.6 0.00 0.00 0.00 89 1015.5
20260505114648 53 166 2.6 3.5 0.00 0.00 0.00 89 1015.6
20260505114144 53 163 0.0 0.9 0.00 0.00 0.00 89 1015.4
20260505113640 53 180 1.7 2.6 0.00 0.00 0.00 89 1015.4
20260505113137 53 195 2.6 3.5 0.00 0.00 0.00 89 1015.3
20260505112633 53 160 0.0 2.6 0.00 0.00 0.00 89 1015.4
20260505112132 53 174 3.5 3.5 0.00 0.00 0.00 89 1015.5
20260505111631 53 190 1.7 2.6 0.00 0.00 0.00 89 1015.4
20260505111127 53 142 2.6 3.5 0.00 0.00 0.00 89 1015.4
20260505110624 53 184 0.9 2.6 0.00 0.00 0.00 89 1015.4
20260505110121 53 192 3.5 3.5 0.00 0.00 0.00 89 1015.1
20260505102057 53 185 1.7 2.6 0.00 0.00 0.00 89 1015.0
20260505101555 53 150 1.7 3.5 0.00 0.00 0.00 89 1014.9
20260505101051 53 181 4.3 6.1 0.00 0.00 0.00 89 1015.0
20260505100548 53 184 0.9 1.7 0.00 0.00 0.00 89 1015.0
20260505100045 53 175 0.9 2.6 0.00 0.00 0.00 89 1014.8
20260505095541 53 179 0.9 1.7 0.00 0.00 0.00 89 1015.0
20260505095037 53 194 1.7 2.6 0.00 0.00 0.00 89 1014.9
20260505094534 53 190 2.6 3.5 0.00 0.00 0.00 89 1015.0
20260505094030 53 165 0.9 2.6 0.00 0.00 0.00 90 1014.8
20260505093527 52 176 2.6 3.5 0.00 0.00 0.00 90 1015.0
20260505093024 52 156 1.7 2.6 0.00 0.00 0.00 90 1015.0
20260505092521 52 181 2.6 3.5 0.00 0.00 0.00 90 1014.5
20260505092020 52 159 1.7 2.6 0.00 0.00 0.00 91 1014.9
20260505091516 52 175 0.9 1.7 0.00 0.00 0.00 91 1014.6
20260505091014 52 185 0.9 1.7 0.00 0.00 0.00 91 1014.8
20260505090512 52 201 0.9 2.6 0.00 0.00 0.00 91 1014.7
20260505090010 52 171 0.9 3.5 0.00 0.00 0.00 91 1014.6
20260505085508 52 169 3.5 3.5 0.00 0.00 0.00 91 1014.9
20260505085005 51 172 1.7 2.6 0.00 0.00 0.00 91 1014.8
20260505084503 51 154 2.6 2.6 0.00 0.00 0.00 91 1014.8
20260505084001 51 163 0.9 1.7 0.00 0.00 0.00 91 1014.7
20260505083458 51 174 0.9 2.6 0.00 0.00 0.00 91 1014.7
20260505082954 51 160 1.7 1.7 0.00 0.00 0.00 92 1014.6
20260505082450 51 163 0.9 0.9 0.00 0.00 0.00 91 1014.6
20260505081947 52 189 0.9 1.7 0.00 0.00 0.00 91 1014.7
20260505081444 52 181 0.9 0.9 0.00 0.00 0.00 91 1014.7
20260505080940 52 154 0.9 1.7 0.00 0.00 0.00 90 1014.7
20260505080436 52 184 1.7 2.6 0.00 0.00 0.00 90 1014.4
20260505075932 52 161 1.7 2.6 0.00 0.00 0.00 90 1014.3
20260505075429 52 150 1.7 3.5 0.00 0.00 0.00 90 1014.6
20260505074927 52 178 1.7 2.6 0.00 0.00 0.00 90 1014.5
20260505074424 52 170 0.9 1.7 0.00 0.00 0.00 90 1014.3
20260505073921 52 174 1.7 1.7 0.00 0.00 0.00 90 1014.5
20260505073419 52 165 1.7 2.6 0.00 0.00 0.00 90 1014.2
20260505072915 52 167 1.7 2.6 0.00 0.00 0.00 89 1014.4
20260505072411 52 176 1.7 1.7 0.00 0.00 0.00 89 1014.3
20260505071908 52 166 1.7 2.6 0.00 0.00 0.00 89 1014.1
20260505071404 52 174 1.7 1.7 0.00 0.00 0.00 90 1014.4
20260505070902 52 159 0.9 2.6 0.00 0.00 0.00 89 1014.0
20260505070358 52 159 0.9 1.7 0.00 0.00 0.00 90 1013.9
20260505065854 52 166 0.0 1.7 0.00 0.00 0.00 90 1013.9
20260505065351 52 154 0.0 0.9 0.00 0.00 0.00 90 1014.1
20260505064848 53 149 0.9 1.7 0.00 0.00 0.00 90 1014.0
20260505064345 53 190 1.7 1.7 0.00 0.00 0.00 89 1014.0
20260505063843 53 205 1.7 1.7 0.00 0.00 0.00 89 1014.1
20260505063339 53 186 0.9 1.7 0.00 0.00 0.00 89 1014.1
20260505062835 53 209 0.9 1.7 0.00 0.00 0.00 88 1014.0
20260505062333 53 193 1.7 3.5 0.00 0.00 0.00 88 1013.9
20260505061830 53 180 2.6 5.2 0.00 0.00 0.00 88 1013.9
20260505061328 53 152 0.0 3.5 0.00 0.00 0.00 88 1013.8
20260505060825 53 199 0.9 2.6 0.00 0.00 0.00 88 1013.6
20260505060322 53 186 3.5 5.2 0.00 0.00 0.00 88 1013.8
20260505055817 53 180 0.0 6.1 0.00 0.00 0.00 88 1014.0
20260505055314 53 267 3.5 6.1 0.00 0.00 0.00 88 1013.9
20260505054811 53 345 1.7 3.5 0.00 0.00 0.00 88 1013.6
20260505054308 53 207 5.2 7.0 0.00 0.00 0.00 88 1013.7
20260505053807 53 265 3.5 5.2 0.00 0.00 0.00 87 1013.8
20260505053303 54 180 3.5 7.0 0.00 0.00 0.00 87 1013.5
20260505052800 54 191 1.7 6.1 0.00 0.00 0.00 87 1013.6
20260505052257 54 211 3.5 8.7 0.00 0.00 0.00 86 1013.5
20260505051754 54 216 2.6 7.8 0.00 0.00 0.00 86 1013.7
20260505051252 54 241 3.5 6.1 0.00 0.00 0.00 86 1013.7
20260505050750 55 209 4.3 6.1 0.00 0.00 0.00 85 1013.7
20260505050248 55 220 3.5 3.5 0.00 0.00 0.00 85 1013.8
20260505041718 56 229 3.5 12.2 0.00 0.00 0.00 82 1012.9
20260505041215 56 183 6.1 7.8 0.00 0.00 0.00 82 1012.8
20260505040712 56 182 3.5 6.1 0.00 0.00 0.00 82 1012.6
20260505040209 56 217 3.5 3.5 0.00 0.00 0.00 81 1012.4
20260505035706 56 151 2.6 5.2 0.00 0.00 0.00 81 1012.1
20260505035202 57 226 1.7 1.7 0.00 0.00 0.00 81 1012.0
20260505034659 57 325 0.9 5.2 0.00 0.00 0.00 80 1012.0
20260505034156 57 229 0.9 6.1 0.00 0.00 0.00 79 1012.3
20260505033652 57 255 3.5 5.2 0.00 0.00 0.00 79 1012.0
20260505033150 58 227 3.5 6.1 0.00 0.00 0.00 79 1012.0
20260505032648 58 127 0.0 3.5 0.00 0.00 0.00 78 1012.0
20260505032144 58 149 0.0 3.5 0.00 0.00 0.00 78 1011.7
20260505031642 59 179 1.7 2.6 0.00 0.00 0.00 77 1011.9
20260505031137 59 192 0.9 3.5 0.00 0.00 0.00 77 1011.6
20260505030635 60 284 2.6 5.2 0.00 0.00 0.00 76 1011.8
20260505030130 60 282 0.9 6.1 0.00 0.00 0.00 75 1011.7
20260505025626 61 182 4.3 7.0 0.00 0.00 0.00 74 1011.4
20260505025125 61 207 2.6 5.2 0.00 0.00 0.00 73 1011.5
20260505024622 62 115 1.7 5.2 0.00 0.00 0.00 73 1011.5
20260505024119 62 166 0.0 1.7 0.00 0.00 0.00 72 1011.5
20260505023617 63 187 0.9 3.5 0.00 0.00 0.00 72 1011.3
20260505023114 63 298 0.9 3.5 0.00 0.00 0.00 71 1011.4
20260505022611 64 274 3.5 5.2 0.00 0.00 0.00 70 1011.4
20260505022108 64 198 2.6 6.1 0.00 0.00 0.00 70 1011.4
20260505021605 65 163 1.7 3.5 0.00 0.00 0.00 69 1011.3
20260505021102 66 266 5.2 7.8 0.00 0.00 0.00 68 1011.3
20260505020602 67 284 1.7 2.6 0.00 0.00 0.00 66 1011.4
20260505020059 67 208 0.9 8.7 0.00 0.00 0.00 66 1011.3
20260505015556 68 109 2.6 5.2 0.00 0.00 0.00 65 1011.4
20260505015053 69 45 0.9 0.9 0.00 0.00 0.00 64 1011.3
20260505014549 68 268 0.9 2.6 0.00 0.00 0.00 64 1011.5
20260505014047 69 200 3.5 5.2 0.00 0.00 0.00 64 1011.2
20260505013544 69 199 1.7 3.5 0.00 0.00 0.00 63 1011.4
20260505013041 71 321 1.7 1.7 0.00 0.00 0.00 62 1011.4
20260505012539 71 160 0.9 1.7 0.00 0.00 0.00 62 1011.5
20260505012036 70 285 1.7 3.5 0.00 0.00 0.00 63 1011.4
20260505011531 71 225 1.7 5.2 0.00 0.00 0.00 61 1011.3
20260505011028 71 244 1.7 5.2 0.00 0.00 0.00 61 1011.4
20260505010524 71 202 2.6 3.5 0.00 0.00 0.00 61 1011.3
20260505010021 71 233 2.6 5.2 0.00 0.00 0.00 61 1011.5
20260505005517 73 301 1.7 3.5 0.00 0.00 0.00 60 1011.4
20260505005015 73 237 0.9 2.6 0.00 0.00 0.00 60 1011.4
20260505004512 73 247 1.7 3.5 0.00 0.00 0.00 60 1011.7
20260505004008 74 217 0.9 3.5 0.00 0.00 0.00 58 1011.4
20260505003505 73 252 4.3 6.1 0.00 0.00 0.00 60 1011.6
20260505003002 73 180 2.6 6.1 0.00 0.00 0.00 61 1011.5
20260505002457 74 215 5.2 7.0 0.00 0.00 0.00 59 1011.5
20260505001956 75 205 2.6 3.5 0.00 0.00 0.00 58 1011.3
20260505001453 74 236 2.6 6.1 0.00 0.00 0.00 59 1011.3
20260505000950 74 195 3.5 5.2 0.00 0.00 0.00 58 1011.5
20260505000448 73 169 7.8 8.7 0.00 0.00 0.00 60 1011.4
20260504235945 73 196 3.5 7.0 0.00 0.00 0.00 60 1011.6
20260504235442 73 213 2.6 3.5 0.00 0.00 0.00 58 1011.6
20260504234938 73 217 7.0 7.8 0.00 0.00 0.00 57 1011.9
20260504234436 74 232 4.3 5.2 0.00 0.00 0.00 57 1011.5
20260504233932 73 197 2.6 7.0 0.00 0.00 0.00 59 1011.7
20260504233428 74 165 0.0 3.5 0.00 0.00 0.00 56 1011.8
20260504232925 74 203 0.0 5.2 0.00 0.00 0.00 56 1011.7
20260504232422 73 248 3.5 5.2 0.00 0.00 0.00 57 1011.8
20260504231919 74 295 1.7 7.8 0.00 0.00 0.00 58 1011.8
20260504231415 73 236 4.3 5.2 0.00 0.00 0.00 58 1011.9
20260504230912 75 284 3.5 5.2 0.00 0.00 0.00 56 1012.0
20260504230409 72 177 2.6 3.5 0.00 0.00 0.00 59 1012.0
20260504225908 73 193 3.5 6.1 0.00 0.00 0.00 59 1012.1
20260504225404 73 138 0.0 1.7 0.00 0.00 0.00 59 1012.0
20260504224902 74 288 3.5 3.5 0.00 0.00 0.00 58 1012.2
20260504224358 72 172 2.6 6.1 0.00 0.00 0.00 61 1012.1
20260504223855 73 208 1.7 5.2 0.00 0.00 0.00 58 1012.2
20260504223350 72 245 1.7 2.6 0.00 0.00 0.00 60 1012.2
20260504222847 72 163 0.9 5.2 0.00 0.00 0.00 59 1012.2
20260504222344 72 163 3.5 7.0 0.00 0.00 0.00 61 1012.4
20260504221843 72 214 2.6 6.1 0.00 0.00 0.00 60 1012.2
20260504221339 73 193 2.6 3.5 0.00 0.00 0.00 61 1012.6
20260504220836 70 202 4.3 7.8 0.00 0.00 0.00 62 1012.5
20260504220333 71 155 4.3 9.6 0.00 0.00 0.00 62 1012.6
20260504215830 71 142 3.5 5.2 0.00 0.00 0.00 62 1012.6
20260504215326 70 134 5.2 8.7 0.00 0.00 0.00 63 1012.6
20260504214822 71 156 3.5 6.1 0.00 0.00 0.00 62 1012.6
20260504214320 71 187 0.0 3.5 0.00 0.00 0.00 62 1012.5
20260504213816 70 181 3.5 7.0 0.00 0.00 0.00 62 1012.9
20260504213312 70 189 5.2 7.8 0.00 0.00 0.00 62 1013.0
20260504212810 71 133 5.2 6.1 0.00 0.00 0.00 61 1012.9
20260504212306 69 129 0.0 2.6 0.00 0.00 0.00 64 1012.9
20260504211804 69 184 4.3 7.0 0.00 0.00 0.00 66 1013.1
20260504211259 68 159 1.7 9.6 0.00 0.00 0.00 66 1013.3
20260504210757 68 205 3.5 5.2 0.00 0.00 0.00 65 1013.1
20260504210254 68 36 2.6 6.1 0.00 0.00 0.00 66 1013.1
20260504205751 67 140 0.9 5.2 0.00 0.00 0.00 67 1013.1
20260504205249 68 137 0.9 6.1 0.00 0.00 0.00 67 1013.6
20260504204747 67 186 1.7 3.5 0.00 0.00 0.00 66 1013.3
20260504204245 67 174 4.3 6.1 0.00 0.00 0.00 66 1013.5
20260504203744 68 155 3.5 7.8 0.00 0.00 0.00 67 1013.7
20260504203241 66 149 1.7 5.2 0.00 0.00 0.00 67 1013.5
20260504202741 66 150 0.0 1.7 0.00 0.00 0.00 66 1013.6
20260504202238 66 155 2.6 7.8 0.00 0.00 0.00 67 1013.6
20260504201735 66 146 5.2 7.8 0.00 0.00 0.00 69 1013.6
20260504201232 66 142 5.2 7.0 0.00 0.00 0.00 68 1013.6
20260504200730 65 204 2.6 5.2 0.00 0.00 0.00 70 1013.7
20260504200225 65 188 0.9 1.7 0.00 0.00 0.00 68 1013.8
20260504195722 64 41 4.3 7.0 0.00 0.00 0.00 70 1013.8
20260504195218 65 125 2.6 5.2 0.00 0.00 0.00 69 1013.8
20260504194716 64 227 1.7 6.1 0.00 0.00 0.00 70 1013.9
20260504194211 65 140 3.5 6.1 0.00 0.00 0.00 70 1013.8
20260504193708 65 183 1.7 5.2 0.00 0.00 0.00 68 1013.9
20260504193206 64 106 3.5 7.0 0.00 0.00 0.00 71 1013.8
20260504192704 65 184 3.5 8.7 0.00 0.00 0.00 69 1014.0
20260504192201 64 181 1.7 7.0 0.00 0.00 0.00 69 1013.9
20260504191700 63 159 7.8 8.7 0.00 0.00 0.00 71 1013.9
20260504191156 63 124 2.6 7.8 0.00 0.00 0.00 73 1013.8
20260504190652 63 117 4.3 6.1 0.00 0.00 0.00 72 1014.0
20260504190148 63 160 1.7 6.1 0.00 0.00 0.00 74 1014.2
20260504185645 62 105 1.7 5.2 0.00 0.00 0.00 74 1014.1
20260504185142 61 179 5.2 7.0 0.00 0.00 0.00 73 1014.1
20260504184638 62 98 3.5 5.2 0.00 0.00 0.00 74 1014.3
20260504184133 61 148 4.3 7.0 0.00 0.00 0.00 75 1014.4
20260504183630 62 153 3.5 6.1 0.00 0.00 0.00 74 1014.2
20260504183128 61 110 3.5 5.2 0.00 0.00 0.00 76 1014.1
20260504182625 61 162 4.3 5.2 0.00 0.00 0.00 76 1014.4
20260504182123 61 195 4.3 5.2 0.00 0.00 0.00 75 1014.3
20260504181620 60 167 6.1 7.8 0.00 0.00 0.00 76 1014.2
20260504181117 60 145 1.7 3.5 0.00 0.00 0.00 77 1014.2
20260504180616 60 185 3.5 5.2 0.00 0.00 0.00 77 1014.2
20260504180115 60 175 4.3 6.1 0.00 0.00 0.00 77 1014.2
20260504175612 60 211 3.5 5.2 0.00 0.00 0.00 76 1014.2
20260504175108 60 125 1.7 3.5 0.00 0.00 0.00 77 1014.1
20260504174607 60 167 4.3 7.8 0.00 0.00 0.00 78 1014.3
20260504174102 60 198 4.3 6.1 0.00 0.00 0.00 76 1014.2
20260504173559 59 155 1.7 7.8 0.00 0.00 0.00 77 1014.1
20260504173057 59 210 4.3 7.0 0.00 0.00 0.00 79 1014.4
20260504172553 59 225 4.3 8.7 0.00 0.00 0.00 80 1014.2
20260504172050 59 163 6.1 7.8 0.00 0.00 0.00 80 1014.4
20260504171547 59 197 0.9 3.5 0.00 0.00 0.00 79 1014.3
20260504171044 58 161 4.3 7.0 0.00 0.00 0.00 80 1014.2
20260504170539 58 144 3.5 7.0 0.00 0.00 0.00 80 1014.2